• In Belarus
  • List of Countries
  • For 7 days
  • Water Temperature
  • Satellite Maps
  • Weather Map
  • Weather Widgets
  • user-avatar
    Login

    Hourly Weather Córdoba

    Today, 18 August, Saturday

    Time Temperature Precipitation Wind Pressure Humidity
    00:00 +18°C° 0 mm 3 mps 723 mmHg 61%
    01:00 +18°C° 0 mm 3 mps 722 mmHg 63%
    02:00 +18°C° 0 mm 3 mps 722 mmHg 65%
    03:00 +17°C° 0 mm 3 mps 722 mmHg 66%
    04:00 +17°C° 0 mm 2 mps 722 mmHg 68%
    05:00 +17°C° 0 mm 2 mps 721 mmHg 70%
    06:00 +17°C° 0 mm 2 mps 722 mmHg 69%
    07:00 +18°C° 0 mm 2 mps 722 mmHg 68%
    08:00 +19°C° 0 mm 1 mps 723 mmHg 67%
    09:00 +20°C° 0 mm 2 mps 723 mmHg 61%
    10:00 +22°C° 0 mm 4 mps 724 mmHg 55%
    11:00 +23°C° 0 mm 5 mps 725 mmHg 50%
    12:00 +21°C° 0 mm 6 mps 725 mmHg 49%
    13:00 +18°C° 0 mm 7 mps 725 mmHg 48%
    14:00 +17°C° 0 mm 8 mps 725 mmHg 47%
    15:00 +16°C° 0 mm 8 mps 725 mmHg 44%
    16:00 +15°C° 0 mm 8 mps 726 mmHg 41%
    17:00 +15°C° 0 mm 8 mps 727 mmHg 38%
    18:00 +13°C° 0 mm 8 mps 727 mmHg 37%
    19:00 +12°C° 0 mm 7 mps 728 mmHg 36%
    20:00 +11°C° 0 mm 7 mps 729 mmHg 35%
    21:00 +11°C° 0 mm 7 mps 729 mmHg 34%
    22:00 +11°C° 0 mm 6 mps 730 mmHg 34%
    23:00 +10°C° 0 mm 6 mps 730 mmHg 33%

    Tomorrow, 19 August, Sunday

    Time Temperature Precipitation Wind Pressure Humidity
    00:00 +10°C° 0 mm 6 mps 731 mmHg 35%
    01:00 +9°C° 0 mm 6 mps 731 mmHg 36%
    02:00 +9°C° 0 mm 6 mps 731 mmHg 38%
    03:00 +8°C° 0 mm 6 mps 732 mmHg 37%
    04:00 +7°C° 0 mm 6 mps 732 mmHg 36%
    05:00 +7°C° 0 mm 6 mps 733 mmHg 35%
    06:00 +7°C° 0 mm 6 mps 734 mmHg 32%
    07:00 +7°C° 0 mm 6 mps 735 mmHg 30%
    08:00 +7°C° 0 mm 6 mps 735 mmHg 27%
    09:00 +8°C° 0 mm 6 mps 736 mmHg 26%
    10:00 +10°C° 0 mm 6 mps 736 mmHg 25%
    11:00 +11°C° 0 mm 6 mps 737 mmHg 24%
    12:00 +11°C° 0 mm 6 mps 736 mmHg 23%
    13:00 +13°C° 0 mm 6 mps 736 mmHg 23%
    14:00 +13°C° 0 mm 6 mps 735 mmHg 23%
    15:00 +13°C° 0 mm 6 mps 735 mmHg 24%
    16:00 +12°C° 0 mm 5 mps 735 mmHg 26%
    17:00 +12°C° 0 mm 5 mps 735 mmHg 28%
    18:00 +10°C° 0 mm 4 mps 736 mmHg 31%
    19:00 +8°C° 0 mm 4 mps 736 mmHg 35%
    20:00 +7°C° 0 mm 3 mps 737 mmHg 38%
    21:00 +5°C° 0 mm 3 mps 737 mmHg 40%
    22:00 +6°C° 0 mm 2 mps 737 mmHg 41%
    23:00 +5°C° 0 mm 2 mps 738 mmHg 43%

    Day after tomorrow, 20 August, Monday

    Time Temperature Precipitation Wind Pressure Humidity
    00:00 +4°C° 0 mm 2 mps 737 mmHg 45%
    01:00 +4°C° 0 mm 2 mps 737 mmHg 46%
    02:00 +3°C° 0 mm 2 mps 737 mmHg 48%
    03:00 +3°C° 0 mm 2 mps 736 mmHg 49%
    04:00 +3°C° 0 mm 1 mps 736 mmHg 50%
    05:00 +3°C° 0 mm 1 mps 736 mmHg 52%
    06:00 +3°C° 0 mm 1 mps 736 mmHg 50%
    07:00 +4°C° 0 mm 1 mps 736 mmHg 49%
    08:00 +5°C° 0 mm 1 mps 737 mmHg 47%
    09:00 +5°C° 0 mm 2 mps 737 mmHg 44%
    10:00 +7°C° 0 mm 2 mps 736 mmHg 40%
    11:00 +9°C° 0 mm 2 mps 736 mmHg 36%
    12:00 +10°C° 0 mm 2 mps 735 mmHg 34%
    13:00 +12°C° 0 mm 2 mps 734 mmHg 32%
    14:00 +12°C° 0 mm 3 mps 733 mmHg 30%
    15:00 +11°C° 0 mm 3 mps 733 mmHg 32%
    16:00 +11°C° 0 mm 3 mps 732 mmHg 33%
    17:00 +11°C° 0 mm 3 mps 732 mmHg 34%
    18:00 +9°C° 0 mm 2 mps 732 mmHg 39%
    19:00 +8°C° 0 mm 2 mps 732 mmHg 43%
    20:00 +7°C° 0 mm 1 mps 733 mmHg 48%
    21:00 +7°C° 0 mm 1 mps 733 mmHg 50%
    22:00 +6°C° 0 mm 1 mps 733 mmHg 51%
    23:00 +5°C° 0 mm 2 mps 733 mmHg 53%

    21 August, Tuesday

    Time Temperature Precipitation Wind Pressure Humidity
    00:00 +4°C° 0 mm 2 mps 733 mmHg 54%
    01:00 +4°C° 0 mm 2 mps 732 mmHg 55%
    02:00 +4°C° 0 mm 2 mps 732 mmHg 57%
    03:00 +4°C° 0 mm 2 mps 731 mmHg 57%
    04:00 +3°C° 0 mm 2 mps 731 mmHg 58%
    05:00 +3°C° 0 mm 2 mps 731 mmHg 59%
    06:00 +4°C° 0 mm 2 mps 731 mmHg 56%
    07:00 +5°C° 0 mm 2 mps 731 mmHg 53%
    08:00 +5°C° 0 mm 3 mps 732 mmHg 50%
    09:00 +8°C° 0 mm 3 mps 732 mmHg 44%
    10:00 +10°C° 0 mm 4 mps 732 mmHg 38%
    11:00 +13°C° 0 mm 4 mps 731 mmHg 33%
    12:00 +14°C° 0 mm 4 mps 731 mmHg 31%
    13:00 +15°C° 0 mm 4 mps 730 mmHg 29%
    14:00 +17°C° 0 mm 4 mps 729 mmHg 27%
    15:00 +17°C° 0 mm 4 mps 729 mmHg 29%
    16:00 +15°C° 0 mm 4 mps 728 mmHg 31%
    17:00 +14°C° 0 mm 4 mps 728 mmHg 33%
    18:00 +13°C° 0 mm 4 mps 728 mmHg 38%
    19:00 +11°C° 0 mm 3 mps 728 mmHg 44%
    20:00 +9°C° 0 mm 3 mps 729 mmHg 49%
    21:00 +8°C° 0 mm 3 mps 729 mmHg 51%
    22:00 +8°C° 0 mm 3 mps 729 mmHg 53%
    23:00 +7°C° 0 mm 3 mps 729 mmHg 55%

    22 August, Wednesday

    Time Temperature Precipitation Wind Pressure Humidity
    00:00 +7°C° 0 mm 3 mps 729 mmHg 56%
    01:00 +7°C° 0 mm 3 mps 729 mmHg 57%
    02:00 +7°C° 0 mm 3 mps 729 mmHg 58%
    03:00 +7°C° 0 mm 3 mps 728 mmHg 58%
    04:00 +5°C° 0 mm 3 mps 728 mmHg 59%
    05:00 +5°C° 0 mm 3 mps 727 mmHg 59%
    06:00 +7°C° 0 mm 3 mps 727 mmHg 56%
    07:00 +7°C° 0 mm 4 mps 728 mmHg 54%
    08:00 +8°C° 0 mm 4 mps 728 mmHg 51%
    09:00 +10°C° 0 mm 5 mps 728 mmHg 45%
    10:00 +14°C° 0 mm 5 mps 727 mmHg 39%
    11:00 +17°C° 0 mm 6 mps 727 mmHg 33%
    12:00 +18°C° 0 mm 7 mps 726 mmHg 32%
    13:00 +20°C° 0 mm 7 mps 725 mmHg 31%
    14:00 +21°C° 0 mm 7 mps 724 mmHg 29%
    15:00 +20°C° 0 mm 7 mps 723 mmHg 31%
    16:00 +18°C° 0 mm 7 mps 722 mmHg 33%
    17:00 +18°C° 0 mm 7 mps 722 mmHg 34%
    18:00 +16°C° 0 mm 6 mps 722 mmHg 40%
    19:00 +14°C° 0 mm 5 mps 722 mmHg 45%
    20:00 +13°C° 0 mm 4 mps 721 mmHg 50%
    21:00 +12°C° 0 mm 4 mps 721 mmHg 52%
    22:00 +11°C° 0 mm 4 mps 721 mmHg 55%
    23:00 +10°C° 0 mm 5 mps 721 mmHg 57%

    23 August, Thursday

    Time Temperature Precipitation Wind Pressure Humidity
    00:00 +10°C° 0 mm 5 mps 720 mmHg 58%
    01:00 +10°C° 0 mm 5 mps 719 mmHg 59%
    02:00 +9°C° 0 mm 5 mps 719 mmHg 60%
    03:00 +9°C° 0 mm 5 mps 718 mmHg 61%
    04:00 +9°C° 0 mm 5 mps 718 mmHg 62%
    05:00 +9°C° 0 mm 5 mps 718 mmHg 63%
    06:00 +10°C° 0 mm 5 mps 718 mmHg 61%
    07:00 +10°C° 0 mm 5 mps 718 mmHg 59%
    08:00 +12°C° 0 mm 5 mps 718 mmHg 57%
    09:00 +15°C° 0 mm 4 mps 719 mmHg 51%
    10:00 +18°C° 0 mm 4 mps 719 mmHg 44%
    11:00 +21°C° 0 mm 3 mps 719 mmHg 38%
    12:00 +21°C° 0 mm 4 mps 719 mmHg 36%
    13:00 +22°C° 0 mm 4 mps 719 mmHg 35%
    14:00 +22°C° 0 mm 4 mps 718 mmHg 34%
    15:00 +22°C° 0 mm 5 mps 719 mmHg 35%
    16:00 +21°C° 0 mm 6 mps 719 mmHg 36%
    17:00 +20°C° 0 mm 8 mps 720 mmHg 36%
    18:00 +18°C° 0 mm 8 mps 721 mmHg 40%
    19:00 +16°C° 0 mm 8 mps 723 mmHg 43%
    20:00 +15°C° 0 mm 8 mps 724 mmHg 46%
    21:00 +13°C° 0 mm 8 mps 724 mmHg 44%
    22:00 +12°C° 0 mm 7 mps 725 mmHg 43%
    23:00 +12°C° 0 mm 7 mps 725 mmHg 41%
    Show more